Aérodrome :
LOGIN :

S'inscrire | Disclaimer

   EN    FR    IT 

 










Légende :    VFR   VFR Marginal   IFR   IFR Intensif   IFR Très Intensif
Visi : 
Plafond : 
>= 8 km
>= 3000ft
5 à 8 km
1000 à 3000 ft
1500m à 5 km
500 à 1000 ft
800 à 1500m
200 à 500 ft
< 800m
< 200 ft
Symboles :   Orages  Brouillard  Fortes neiges  Fortes précipitations  Vent > 20 kt
SIGMETs :   Divers  Orages  Givrage  Turbulence  Onde Orograph.  Cendres Volcan.







- Altitude de l'aérodrome : 10 ft
- Code IATA : TTU


GMTN - Saniat R'Mel

DERNIER METAR :
  • 211200Z 01004KT 340V050 9999 SCT016 SCT030 16/14 Q1013 NOSIG

METARs EXPIRÉS :
  • 211100Z 08005KT 050V120 9999 SCT016 SCT030 16/14 Q1014 NOSIG
  • 211000Z VRB02KT 8000 SCT016 SCT030 16/14 Q1014 NOSIG

TAF N/A
Pas de NOTAMs connus pour ce terrain.
1 SIGMET publié pour la FIR Casablanca (GMMM) :
 
Onde orographique forte
GMMM SIGMET O1 VALID 211000/211400 GMMC
GMMM CASABLANCA FIR SEV MTW FCST N OF LINE N3455 W00213 - N3256 W005 42 - N3351 W00704 FL030/150 STNR NC=



MET'MAP, la Météo Aéronautique d'un coup d'oeil ! - Copyright ORBIFLY Décembre 2007 - Disclaimer

ORBIFLY MET'MAP TEAM :

Programmation & Développement : Alexandra Zaïnal
Conception & Développement : Baudouin d'Aumeries
Co-Programmation & Développement : Marc-Olivier Méhu
Soutien technique & logistique : Manuel Goepfert

Contact : metmap@orbifly.com




SOURCES & CREDITS :

   NOAA